{"data":{"norad_id":60931,"intl_designator":"2024-155H","name":"STARLINK-11204 [DTC]","alt_names":[],"object_type":"PAYLOAD","status":"ACTIVE","operator":null,"country":"US","launch_date":"2024-08-31","launch_site_code":"AFWTR","launch_vehicle":null,"mission":null,"orbit_class":"UNKNOWN","rcs_meters":null,"size_class":null,"mass_kg":null,"dimensions":null,"purposes":["comms"],"wikipedia_slug":null,"has_3d_model":false,"image_url":null,"decayed_at":null,"tle_current":{"epoch":"2026-05-24T21:31:32.386368Z","epoch_age_seconds":87462,"freshness":"FRESH","line1":"1 60931U 24155H   26144.89690262  .00003653  00000+0  34987-4 0  9996","line2":"2 60931  53.1567 325.4245 0000814  85.0778 275.0333 15.69715629100376","mean_motion":15.69715629,"eccentricity":8.14e-5,"inclination_deg":53.1567,"raan_deg":325.4245,"arg_perigee_deg":85.0778,"mean_anomaly_deg":275.0333,"bstar":3.4987e-5,"rev_number":10037,"period_min":91.736361248907,"perigee_km":359.16218162649,"apogee_km":360.25910322268,"semimajor_km":6737.8476424246,"source":"CELESTRAK","updated_at":"2026-05-25T13:38:19.318485Z"}}}